RH
22 28 33 40 45 42 38 36 33 30 26 25 25 26 28 29 27 24 21 20 20 21 20 19 19 20 19 21 23 22 23 28 27 25 26 24 27 33 31 34 43 48 50 52 52 45 37 34 31 25 22 22 23 29 31 33 37 40 36 34 33 30 28 25 24 24 26 27 28 30 33 34 33 32 32 31 31 30 29 29 29 26 24 23 22 22
26 34 39 42 43 38 35 33 29 27 27 25 25 27 27 24 23 22 21 21 22 22 22 21 20 20 20 20 20 21 23 27 29 29 29 27 31 38 37 40 48 53 54 54 55 52 40 36 36 30 24 22 23 27 33 36 39 42 39 35 32 30 27 26 25 26 26 28 29 31 34 35 33 31 31 32 31 28 23 21 21 20 23 28 27 23
33 43 40 37 36 31 28 27 26 27 29 30 31 33 31 25 23 22 19 19 20 22 23 23 23 22 21 20 19 20 24 28 31 32 33 35 39 40 39 42 50 57 63 62 60 60 50 41 41 39 30 24 24 25 31 38 40 40 38 33 31 29 27 29 30 28 31 34 34 36 37 36 36 34 34 33 28 23 19 17 17 15 17 27 31 29
35 42 35 31 30 27 27 29 31 31 31 36 40 41 38 33 32 30 23 20 19 21 25 24 25 25 21 21 21 23 27 31 35 41 43 44 44 41 40 44 49 56 69 74 68 64 57 46 42 43 38 29 24 25 31 39 41 39 35 31 30 28 28 34 34 32 37 40 38 41 41 39 39 35 31 27 21 20 19 18 19 17 17 22 25 28
31 33 29 28 30 30 33 33 36 37 38 44 46 47 47 41 38 36 30 26 21 21 27 28 29 29 24 23 25 28 32 35 39 45 46 45 44 42 41 45 52 55 62 74 74 65 56 50 46 45 43 38 30 27 31 36 40 40 35 31 29 28 31 36 37 36 40 39 38 40 40 40 39 32 28 27 24 22 21 20 20 19 21 22 20 25
27 28 29 30 33 34 34 37 43 46 49 55 53 50 52 48 43 42 39 35 29 28 32 33 33 32 30 31 35 37 39 42 44 45 44 44 46 46 43 44 52 55 58 72 75 64 56 54 53 50 47 46 40 34 33 34 37 40 37 33 30 31 34 34 35 37 37 35 36 36 34 35 33 29 31 35 32 29 26 24 23 22 23 23 21 21
27 30 33 32 34 34 33 40 47 45 46 54 55 50 50 51 47 46 45 42 40 42 43 40 37 38 43 47 49 48 47 48 49 47 46 47 47 45 46 47 52 58 65 74 72 63 60 58 57 56 53 49 45 42 41 38 38 40 40 36 31 33 36 34 36 39 36 34 33 32 32 32 31 34 39 40 38 36 31 26 25 25 24 24 23 20
33 30 30 28 30 32 33 37 37 34 35 40 44 42 41 45 47 48 49 47 44 44 44 41 36 42 57 61 56 54 53 52 52 52 51 51 48 45 46 47 50 57 62 65 65 63 64 61 57 57 56 53 52 50 49 45 42 42 42 38 33 34 38 35 36 41 38 34 32 31 35 38 39 44 45 41 37 36 32 29 29 28 26 26 25 24
32 28 26 25 28 31 30 29 27 27 31 33 37 39 37 39 41 42 46 49 50 48 47 43 38 48 66 65 57 56 59 61 60 57 56 55 53 50 49 47 47 54 57 56 56 57 60 61 56 54 56 60 65 65 61 54 48 47 46 40 35 36 39 37 37 40 38 35 34 33 40 46 46 49 47 39 36 35 34 34 34 32 30 28 28 27
32 28 25 24 27 28 24 25 29 30 32 33 36 40 40 39 39 37 40 45 48 50 48 45 46 56 67 66 62 62 67 71 68 62 61 60 57 56 55 51 49 52 54 56 57 55 57 59 57 60 63 63 67 68 65 61 54 51 49 45 42 41 42 41 39 39 37 38 40 39 44 50 48 49 46 38 36 37 37 37 37 37 34 31 29 29
32 28 27 27 26 25 23 27 34 33 33 35 39 44 45 45 46 43 42 44 47 49 47 46 51 58 67 75 75 70 70 73 71 68 67 64 62 62 61 57 54 53 53 56 59 60 60 59 60 66 68 61 59 61 62 64 62 56 52 49 48 47 49 47 42 39 40 44 47 46 48 51 50 49 44 38 37 38 39 39 40 40 39 36 33 31
32 29 29 28 25 24 25 30 34 35 37 41 44 47 49 54 59 53 49 49 51 51 48 48 53 58 71 84 81 73 70 70 69 69 68 66 64 63 63 61 58 59 58 57 59 60 60 59 60 64 67 65 64 65 65 69 72 69 63 58 53 49 49 49 45 42 44 48 51 52 52 52 52 49 42 39 39 39 40 40 41 41 41 41 38 35
31 30 27 27 25 24 27 30 33 38 42 46 48 48 49 57 61 58 55 55 53 51 50 48 52 61 76 85 81 75 72 69 68 68 68 68 66 64 64 63 60 60 62 60 59 58 56 56 58 61 66 67 65 68 71 73 77 78 75 71 65 58 56 53 50 46 46 49 52 54 53 53 55 51 44 42 41 40 42 41 41 42 42 42 42 40
28 30 27 25 25 24 26 27 34 43 46 48 49 48 53 57 59 65 69 67 60 57 56 50 51 67 82 84 84 80 74 69 69 69 68 68 67 67 66 65 64 62 62 63 62 59 57 56 58 59 61 62 60 66 74 75 76 77 75 72 68 65 66 65 62 58 54 54 55 55 54 55 57 53 48 48 46 43 44 43 42 43 43 43 43 42
28 31 28 25 23 23 25 26 33 45 48 49 48 49 53 52 55 68 75 75 67 59 58 54 58 76 84 83 86 84 75 71 70 69 68 67 68 69 69 67 67 67 64 64 63 61 58 57 58 59 61 62 61 64 70 70 71 73 71 69 66 64 66 68 69 69 67 64 61 60 58 58 60 57 53 53 53 50 47 46 44 44 45 45 45 45
30 33 30 26 24 23 25 27 31 41 49 49 46 47 48 45 48 56 60 64 62 55 57 61 69 79 82 81 83 79 73 70 69 67 65 65 66 68 69 69 69 70 67 65 65 63 61 59 61 61 63 65 64 64 66 64 65 67 67 66 66 65 67 69 71 73 74 71 70 69 66 63 62 61 57 56 57 56 54 49 46 47 48 48 47 47
33 36 33 28 28 28 27 31 33 36 45 49 47 46 45 44 44 48 53 54 53 55 60 67 76 80 80 81 77 70 68 66 64 63 62 63 63 62 66 68 70 71 70 69 68 65 63 63 64 63 63 65 66 67 67 66 65 66 66 68 68 67 68 69 71 74 76 75 74 75 74 73 70 66 62 60 59 60 59 55 51 52 52 50 49 48
32 37 37 29 31 30 27 32 35 34 38 46 51 47 45 48 45 46 54 51 50 59 64 68 77 78 77 80 75 69 67 64 60 58 58 62 62 62 64 67 69 71 73 73 72 68 66 65 65 66 65 66 68 68 69 68 67 66 66 68 69 69 71 72 73 75 78 77 75 73 75 76 76 75 70 65 64 63 62 60 58 57 57 54 52 51
30 38 40 31 31 31 28 31 33 33 33 40 47 45 46 56 54 51 54 49 49 57 62 70 78 76 73 74 71 65 61 57 56 54 54 58 61 63 67 68 69 71 73 74 73 71 70 67 67 67 67 68 69 70 71 70 70 70 68 69 69 71 74 76 75 75 77 78 77 76 75 73 74 77 78 74 70 68 65 64 64 62 60 58 55 54
32 43 42 32 30 32 34 33 29 30 30 33 40 42 45 55 57 56 53 48 47 52 63 77 84 80 74 70 66 62 57 54 57 56 56 58 60 62 66 67 69 72 73 74 73 73 72 69 68 67 67 69 69 71 72 71 73 74 73 72 71 72 74 74 74 74 75 77 77 77 77 76 73 75 79 78 76 75 70 67 68 66 64 61 58 58
33 44 44 35 31 33 37 33 27 28 28 30 36 38 41 48 53 57 55 48 46 53 61 66 73 77 70 64 63 60 56 55 58 59 57 58 59 59 59 60 63 68 71 72 72 72 73 72 72 71 70 72 72 73 74 74 74 75 75 75 73 72 71 71 71 72 74 77 76 75 78 80 77 76 78 78 78 79 75 70 71 71 67 63 62 62
33 42 47 42 34 33 36 31 28 29 27 32 37 35 38 44 51 59 61 52 46 56 59 53 64 76 69 61 62 59 58 60 61 61 60 60 60 58 57 57 58 61 63 65 66 67 70 72 73 73 74 75 75 76 79 79 78 78 77 76 74 74 73 72 73 72 73 77 77 76 78 82 81 79 80 80 81 83 81 75 71 72 70 65 64 64
35 41 49 48 37 34 38 34 33 33 28 33 38 33 37 46 50 56 60 53 48 57 57 50 66 82 73 65 64 60 61 62 61 61 60 61 61 59 59 59 60 60 60 60 61 62 63 66 68 71 74 75 76 77 79 80 81 82 82 79 78 78 77 74 74 73 73 78 80 79 82 85 83 81 80 81 84 87 87 81 71 70 73 70 68 69
41 43 46 50 43 38 41 42 42 39 33 34 36 31 35 44 47 51 55 56 58 63 57 51 70 85 75 65 64 60 60 60 60 61 60 60 60 58 59 59 59 61 61 61 62 63 63 63 65 67 69 72 74 75 77 77 79 82 82 81 82 82 80 76 74 73 73 74 76 77 82 84 82 82 82 85 89 90 89 86 76 71 74 74 75 78
46 49 47 49 48 42 43 47 49 46 39 37 38 35 33 35 40 46 51 55 60 65 60 57 71 82 72 63 60 57 55 56 59 59 59 60 60 58 59 58 59 60 60 62 63 64 64 64 65 66 67 69 70 74 78 77 77 79 78 79 79 79 77 76 74 75 75 74 74 74 78 81 82 83 85 86 90 91 90 89 85 78 77 78 78 79
41 49 49 49 50 48 47 50 51 46 38 38 42 40 33 31 37 42 48 53 57 60 63 67 72 73 67 62 58 55 52 53 57 58 59 61 61 59 59 58 60 61 61 62 62 63 64 63 64 66 67 68 69 72 75 76 76 77 76 77 77 74 74 75 76 77 77 77 78 77 78 81 83 84 83 82 85 90 93 92 91 88 87 87 84 81
40 48 48 43 43 46 46 46 45 39 34 35 37 35 31 31 34 38 45 53 54 54 62 69 68 63 60 57 54 52 49 48 51 54 56 59 60 60 59 60 61 62 62 62 62 63 64 63 63 65 66 68 68 68 69 71 73 75 75 76 77 75 74 74 75 76 77 77 78 78 77 78 80 80 81 83 84 88 92 93 94 95 95 93 90 87
43 50 49 39 36 40 41 40 38 35 35 36 33 32 32 31 31 36 41 46 48 50 57 60 57 55 56 54 49 46 42 40 43 45 48 54 57 57 58 60 59 59 59 60 60 60 61 61 60 60 62 64 66 65 66 67 69 71 73 74 75 75 74 72 71 71 74 76 76 76 75 75 76 76 78 84 85 86 89 91 94 95 96 95 94 92
41 47 46 37 34 38 37 35 35 35 37 36 34 35 35 33 33 35 36 39 40 43 50 51 49 52 52 47 42 39 36 35 36 37 40 45 50 53 55 56 53 53 55 56 55 56 56 56 55 54 56 57 59 60 61 63 65 67 70 72 72 72 72 70 69 68 70 73 74 75 75 75 77 76 77 82 86 87 88 87 88 92 95 96 95 94
37 40 40 35 35 39 40 39 40 38 37 36 38 42 41 37 37 37 38 39 35 36 46 48 46 50 49 42 38 36 36 35 33 36 39 39 42 47 51 54 52 52 54 51 47 46 48 49 48 49 52 53 53 54 54 57 62 65 67 68 69 70 69 67 67 67 66 68 69 72 74 75 77 78 80 82 85 88 89 86 85 88 93 93 90 93
36 37 38 39 41 45 49 49 45 39 36 36 37 41 42 39 40 42 44 42 35 36 45 43 42 51 52 46 42 39 37 34 32 35 38 37 39 43 48 53 53 52 50 45 39 39 39 40 42 43 47 49 49 50 49 50 55 59 61 61 62 65 67 67 66 65 66 66 67 69 71 74 76 79 82 86 88 90 91 90 87 87 88 85 82 88
38 37 38 42 42 44 50 52 47 41 39 42 44 44 42 39 41 43 42 40 38 37 39 38 44 55 55 49 45 43 41 36 32 34 37 38 41 46 48 50 50 49 47 44 40 37 37 39 41 41 43 44 46 47 46 46 48 52 55 57 57 57 61 67 69 68 70 72 72 70 70 72 74 77 82 87 90 92 93 93 89 85 84 83 83 87
42 38 37 38 37 41 51 52 47 43 45 52 55 49 43 40 40 40 39 40 43 43 41 43 47 52 51 48 47 45 41 38 34 34 36 40 46 51 50 48 47 47 46 44 40 36 36 37 37 38 41 42 43 45 46 45 45 48 54 56 55 54 57 62 64 67 73 76 78 76 71 69 71 74 79 83 86 88 91 94 92 88 87 87 89 92
43 41 38 36 34 38 47 46 42 45 51 56 54 47 43 41 39 39 40 42 44 45 46 49 48 48 48 48 46 39 35 36 37 35 37 45 54 56 52 49 49 49 46 42 38 37 37 36 36 38 41 41 40 41 43 44 45 48 51 53 54 53 56 57 57 61 68 74 82 84 80 75 72 71 72 77 80 82 85 89 91 92 92 91 90 92
40 42 38 36 35 36 39 40 41 48 54 54 50 45 44 40 36 39 42 42 43 46 48 50 51 52 52 48 43 36 34 39 41 37 39 48 56 57 54 50 52 51 46 42 40 38 37 37 37 39 39 39 38 38 38 40 42 44 46 48 49 49 51 53 54 58 63 69 76 80 82 84 83 78 78 80 81 81 82 83 85 88 91 93 92 92
35 41 41 39 37 36 36 38 42 47 51 52 50 47 45 41 39 43 43 39 41 46 49 51 52 54 53 49 46 43 43 45 45 43 47 56 61 60 57 54 54 54 49 45 42 40 40 40 41 41 40 38 36 35 36 36 37 38 40 41 43 45 47 49 51 52 55 62 70 73 76 82 84 83 87 87 83 81 81 81 83 86 89 91 91 92
30 37 42 41 38 36 36 38 39 41 48 55 55 51 46 41 38 39 36 34 37 44 49 51 53 55 53 50 50 51 50 50 54 57 60 66 68 65 60 57 56 55 53 50 46 43 43 43 42 41 39 37 35 35 34 34 33 34 35 35 37 40 42 45 49 50 49 52 59 64 67 73 76 79 86 87 80 77 78 78 78 80 82 85 87 89
31 33 39 41 39 36 38 43 43 40 45 54 55 49 45 40 34 30 31 38 44 48 50 51 52 53 53 52 53 54 53 55 64 69 68 68 69 64 59 56 53 53 54 53 49 46 46 45 44 41 39 38 38 36 33 30 29 29 29 31 33 35 36 39 43 47 46 47 51 54 57 63 68 72 78 80 75 71 71 73 74 74 75 78 82 86
34 35 38 41 42 43 46 49 46 41 44 50 50 45 42 39 32 29 37 48 51 51 51 52 51 51 51 53 54 54 54 59 67 70 68 68 65 60 55 53 51 52 53 53 51 50 48 46 44 42 40 40 40 39 35 29 25 25 26 27 29 30 32 35 36 37 40 44 47 51 54 57 59 62 71 82 84 76 68 65 67 69 71 74 76 80
42 42 42 44 46 47 46 44 42 42 47 50 47 44 42 37 31 34 49 56 53 51 52 51 51 51 50 52 54 54 58 65 68 68 67 67 66 63 62 60 58 57 56 55 54 52 48 45 44 44 43 42 41 41 41 36 29 25 24 24 26 27 28 30 31 31 34 37 40 44 49 52 52 53 61 74 83 84 77 67 61 61 65 69 73 76
45 44 44 45 45 44 43 42 39 44 51 49 45 44 41 37 36 45 56 57 50 49 49 48 49 49 49 52 57 60 63 67 67 67 67 70 71 72 71 70 68 66 64 62 60 56 51 49 49 49 48 46 44 44 45 43 37 30 27 24 23 24 25 26 27 28 30 33 35 37 39 39 41 45 49 55 65 77 81 72 62 59 59 61 65 69
39 39 39 39 39 40 42 41 38 43 51 50 46 44 40 39 45 51 51 48 44 43 43 44 46 48 49 53 58 61 64 66 67 68 70 72 75 75 74 73 72 71 69 67 65 62 59 55 53 53 51 49 49 49 47 45 42 39 36 31 26 25 25 25 26 26 27 29 33 35 35 33 32 33 37 43 53 66 73 68 63 63 60 58 60 62
35 34 33 36 39 39 40 41 42 48 53 49 47 47 44 43 47 47 42 40 41 41 41 43 46 48 50 53 56 60 63 65 68 70 71 72 74 74 73 72 70 69 67 66 65 64 63 61 59 57 54 51 50 49 48 46 43 41 40 37 34 32 29 26 27 27 27 28 29 31 33 33 30 28 29 34 42 50 55 59 65 68 64 58 58 59
34 33 32 35 39 39 39 42 47 51 50 47 46 47 45 42 43 41 40 40 41 42 42 43 46 50 53 55 57 60 62 64 68 72 72 70 69 69 69 68 67 67 66 66 65 63 62 61 59 58 56 53 49 47 46 45 42 40 38 38 37 36 33 31 30 29 28 28 29 29 31 32 31 28 28 31 35 36 38 46 60 72 74 69 63 60
36 36 35 34 34 35 36 39 42 45 46 46 44 44 42 41 40 41 42 43 43 42 44 46 48 52 55 56 57 59 62 64 69 72 70 66 65 68 70 69 68 67 66 65 63 60 59 58 56 54 53 50 47 44 43 42 40 39 38 38 38 38 35 33 32 30 29 28 28 28 30 31 30 28 28 31 34 35 36 38 45 58 73 81 78 72
37 37 36 32 32 35 37 39 41 43 44 44 42 41 40 39 39 41 42 43 45 46 48 49 51 53 55 56 57 60 63 66 68 68 65 64 66 69 71 70 68 64 61 60 60 59 58 56 53 51 49 47 44 44 42 40 39 40 41 41 40 40 37 34 31 29 27 26 26 27 29 31 32 31 30 33 36 39 42 41 39 43 55 70 80 82
37 37 36 35 37 39 40 40 42 43 43 42 39 38 37 38 39 40 40 42 47 49 50 51 52 54 55 56 58 62 66 66 65 64 64 67 70 71 70 67 62 58 57 58 58 57 56 54 51 50 49 47 43 42 42 42 42 44 45 45 43 40 38 37 36 31 27 26 26 28 31 33 32 31 32 34 38 43 47 49 49 48 48 53 63 74
38 39 37 37 38 39 40 41 41 40 41 44 43 40 38 40 43 43 42 44 49 50 51 54 57 58 58 57 58 61 62 61 60 61 65 69 70 68 65 61 58 56 57 58 58 57 56 54 51 49 48 46 44 43 44 45 46 48 48 46 44 43 42 42 40 36 33 31 30 31 33 34 33 33 34 37 40 45 48 51 53 53 49 47 49 56
36 35 34 34 34 36 42 45 43 41 42 44 43 40 39 42 44 44 44 46 48 50 52 57 59 59 59 58 57 57 57 57 58 62 66 67 65 62 61 60 58 57 57 58 59 59 57 54 52 49 48 47 45 43 43 43 46 48 48 47 46 46 44 42 41 40 40 39 36 35 35 35 36 37 38 40 44 47 49 51 53 52 49 48 45 45
35 35 35 35 35 40 47 48 44 41 40 39 38 38 38 40 42 43 43 44 47 51 55 57 58 59 58 56 55 56 56 57 59 62 64 65 64 63 61 60 59 58 58 58 59 57 54 53 52 51 50 47 43 41 41 41 42 45 46 47 48 46 43 43 44 43 41 39 38 38 38 38 39 41 41 41 44 48 49 49 49 49 50 50 49 49
34 37 38 39 38 40 43 43 40 38 36 35 36 38 38 39 40 41 43 45 48 52 54 56 58 57 55 52 53 55 58 59 60 62 64 64 64 64 62 60 59 58 57 58 59 58 56 56 56 52 46 41 39 39 39 39 39 42 45 46 46 44 43 44 44 42 40 39 39 40 40 41 42 44 44 43 43 46 48 46 44 45 48 52 57 63